Wind_Speed
18 17 17 16 16 15 15 15 15 15 15 15 15 15 16 17 17 17 17 18 18 17 18 18 19 19 20 20 20 20 21 22 22 22 22 23 23 24 25 25 25 26 26
19 19 19 19 18 18 17 17 17 17 17 17 17 17 17 18 17 18 18 19 18 18 18 19 20 21 21 22 22 22 23 24 24 24 25 26 26 27 27 27 28 29 29
21 21 21 20 20 20 19 19 19 19 18 19 19 19 19 20 20 20 20 21 20 20 21 22 23 23 23 23 23 24 25 26 26 27 28 28 29 29 30 31 31 31 32
23 23 22 22 22 21 21 20 20 21 20 20 21 21 22 22 23 23 23 23 23 23 24 25 25 25 25 26 26 27 27 28 29 30 31 31 32 32 33 34 34 35 35
25 24 24 23 22 22 21 21 21 22 22 22 23 24 24 24 25 25 25 25 25 26 26 26 26 27 28 28 28 29 30 30 31 31 32 34 34 35 36 36 38 38 39
27 26 25 24 23 23 23 23 23 24 24 24 25 25 26 27 27 27 26 27 27 28 28 28 28 28 29 30 31 31 32 33 33 34 35 36 38 39 40 40 41 41 42
26 27 26 25 25 26 26 26 27 27 26 27 27 27 27 29 29 29 28 28 29 30 30 30 30 31 32 33 34 35 36 36 37 38 39 40 41 42 43 44 44 45 46
26 26 25 25 25 26 27 27 28 28 28 28 28 28 28 29 30 30 30 30 31 31 32 33 34 35 36 37 37 38 39 40 40 41 42 43 45 46 46 47 47 48 49
26 26 26 26 26 26 28 28 30 30 29 29 30 31 31 30 30 30 31 32 33 34 35 35 36 38 39 40 40 41 42 42 43 44 45 46 48 49 49 50 50 51 52
27 27 27 28 27 27 28 29 30 31 31 32 33 33 33 33 32 32 33 34 35 37 38 38 39 41 41 42 43 44 45 45 46 47 48 48 49 51 52 52 54 54 54
28 27 27 27 28 29 30 31 32 32 32 33 33 34 35 34 35 36 37 38 38 39 39 40 41 43 44 45 46 47 47 47 47 48 49 50 51 52 53 54 55 56 57
29 29 29 30 30 31 31 32 33 34 34 33 34 35 35 36 38 39 40 40 40 41 42 42 43 45 46 47 48 49 49 50 50 51 52 53 53 54 54 55 56 57 58
31 31 31 31 32 32 33 34 34 35 36 36 36 36 37 39 40 41 41 42 43 44 45 45 45 46 47 47 49 50 51 52 52 53 54 54 55 55 56 57 57 57 58
32 32 32 33 34 34 34 34 36 37 36 36 37 37 39 39 40 41 41 42 44 45 46 46 46 47 47 48 49 50 51 52 53 53 54 54 55 55 55 56 56 57 57
31 32 33 34 35 35 36 37 37 37 37 37 38 38 39 40 41 42 43 43 44 45 46 47 47 48 48 48 49 50 51 51 52 53 53 52 52 53 53 54 54 54 55
33 33 34 34 35 36 37 37 37 37 37 38 39 39 40 42 43 43 43 44 44 45 46 46 46 48 48 48 49 49 50 50 50 50 50 49 49 50 51 51 51 51 51
34 35 35 35 35 36 36 36 36 36 37 38 39 40 41 42 42 42 43 43 44 44 45 45 46 46 47 46 47 47 48 48 48 48 48 48 48 49 48 48 48 48 47
33 33 34 34 35 36 36 36 37 37 37 38 39 39 40 40 41 41 41 41 42 42 42 43 43 43 44 44 44 44 45 45 45 45 45 46 46 45 44 44 44 43 43
33 33 33 34 34 35 35 36 36 36 37 37 38 38 38 38 38 38 38 39 39 39 40 40 40 40 40 40 41 41 41 41 41 41 41 41 40 40 41 40 39 38 38
32 32 32 33 33 34 34 34 35 35 36 36 36 36 35 35 35 36 37 37 36 37 37 36 36 36 37 37 37 37 37 37 38 37 37 36 36 36 36 35 35 35 34
30 30 31 31 31 31 32 33 33 33 33 33 32 33 33 34 34 34 35 35 35 34 33 33 33 33 33 33 33 34 34 34 34 33 33 32 32 31 30 30 30 30 31
27 28 28 28 29 29 30 31 30 30 30 30 31 31 32 32 32 33 33 33 33 31 30 31 31 31 31 31 32 32 31 30 30 29 29 28 27 27 27 26 26 26 27
25 26 26 27 27 28 28 27 27 27 27 27 28 29 30 30 30 29 30 29 29 29 29 29 29 28 28 29 28 28 27 25 25 25 24 24 23 23 23 24 24 24 24
24 24 24 24 24 25 25 25 25 25 25 26 25 25 25 25 25 25 25 25 26 25 25 25 25 24 24 23 23 22 22 22 22 21 21 21 21 21 21 21 21 22 22
21 21 22 22 23 23 23 23 23 23 23 23 23 22 22 22 22 22 22 22 22 21 21 21 20 20 20 19 19 18 18 18 18 18 18 18 18 19 19 19 20 20 20
19 19 20 19 20 20 20 20 20 20 20 20 20 20 20 20 20 20 20 20 19 19 18 18 17 16 16 15 15 15 15 14 15 15 15 15 16 16 17 17 17 17 18
Wind_Direction
237 238 238 239 241 243 244 247 253 261 263 266 270 274 275 276 280 281 281 281 280 280 280 280 282 282 282 281 280 279 279 278 277 276 275 274 274 274 273 272 271 271 271
238 238 238 240 242 244 246 250 257 263 265 267 270 274 276 278 280 280 280 280 278 279 279 279 279 280 280 280 279 278 278 279 279 277 276 275 274 273 272 272 272 271 271
238 238 239 241 243 245 248 252 256 261 264 266 268 271 274 275 276 276 277 278 277 278 278 279 280 279 279 279 280 280 279 278 279 278 277 277 275 274 273 271 272 271 271
239 239 240 242 245 248 249 252 255 258 261 263 267 269 272 273 272 272 274 276 276 277 278 279 280 278 276 277 278 279 278 278 278 278 277 277 276 275 275 274 273 273 272
241 242 242 245 248 249 251 254 255 257 260 263 266 268 270 271 271 270 271 274 275 277 278 279 279 278 276 277 279 279 278 278 279 279 277 276 276 276 276 275 274 273 272
245 244 244 245 247 249 251 255 257 259 260 264 266 267 269 270 271 270 272 274 275 276 276 277 278 278 278 278 279 280 280 279 278 278 277 276 276 276 276 275 274 273 273
249 247 246 248 249 250 253 256 259 262 263 265 267 268 271 271 272 272 273 275 275 276 277 277 279 279 280 280 280 279 280 279 279 278 277 277 277 277 276 275 275 275 274
251 250 251 252 251 254 256 257 261 264 266 269 270 271 273 273 273 273 274 275 276 277 278 278 279 280 280 280 280 280 280 279 279 279 278 278 277 277 276 276 277 277 276
255 256 256 257 256 258 260 262 265 270 271 272 272 272 272 274 275 275 276 276 278 280 280 279 279 280 281 281 281 281 281 281 280 279 279 278 278 277 277 278 278 278 277
256 259 260 261 260 261 264 266 268 270 272 274 276 275 274 275 276 278 278 279 280 281 280 279 280 280 280 281 282 282 282 282 281 280 281 280 279 279 278 278 278 278 277
259 263 265 264 263 264 266 267 269 272 274 276 276 275 276 278 278 280 280 280 281 280 280 281 281 281 281 281 281 280 281 281 281 282 282 281 280 280 280 280 279 279 279
261 263 265 265 266 267 270 270 271 272 274 275 276 277 278 280 280 281 281 280 280 280 280 281 282 282 281 280 280 280 281 282 282 282 283 282 282 282 282 281 281 280 279
265 268 269 269 269 270 273 274 273 275 275 276 277 278 279 280 280 280 280 280 280 280 281 281 282 283 282 282 282 282 282 282 282 283 283 283 283 283 283 283 283 282 281
267 268 269 271 272 272 275 275 275 277 279 278 279 280 280 281 280 280 280 280 281 282 282 282 284 284 284 284 284 284 284 284 284 284 285 285 285 285 284 284 283 283 282
269 268 269 272 273 274 275 277 278 279 281 282 282 282 281 281 282 282 282 281 282 282 283 284 284 284 285 285 285 285 285 285 285 286 286 286 287 286 285 285 284 284 283
271 271 272 273 274 276 278 279 279 280 281 282 283 283 282 282 282 282 282 282 282 283 283 284 285 286 286 286 286 285 285 285 286 287 287 287 288 288 287 287 287 285 285
271 272 273 274 276 277 278 279 280 281 282 283 283 284 284 284 283 284 284 283 284 284 284 285 286 286 286 286 286 286 286 287 287 288 289 289 289 289 290 289 289 288 288
272 274 275 276 278 279 279 280 281 283 283 284 284 285 286 286 286 286 286 285 285 285 286 286 287 286 286 286 287 287 288 289 289 290 290 291 291 291 291 291 290 290 289
275 277 277 278 279 280 280 281 282 283 283 285 286 286 287 287 287 288 288 288 287 288 288 288 288 288 287 288 289 289 290 291 292 292 293 293 292 293 293 292 292 292 292
276 277 278 279 280 281 281 282 283 283 284 286 287 287 288 288 289 289 289 289 289 289 290 289 289 289 289 290 290 291 292 294 295 295 295 296 296 296 296 296 295 295 295
279 280 280 280 280 281 281 282 283 284 286 287 288 288 289 290 290 290 291 291 290 290 290 291 291 291 291 292 293 294 295 296 297 297 299 300 301 301 301 301 301 301 300
280 282 282 281 282 283 283 283 284 286 288 289 290 291 291 291 292 292 293 292 291 290 290 291 292 292 292 294 295 297 298 298 298 299 300 302 303 305 306 307 307 307 307
281 282 283 284 284 284 283 284 286 289 291 292 293 293 293 292 293 294 294 293 292 292 292 292 293 294 296 298 299 300 301 302 303 303 304 305 307 309 311 312 312 313 314
282 283 285 287 288 288 287 289 290 291 292 294 296 296 295 295 296 297 297 297 297 296 296 296 297 298 301 304 304 304 305 306 308 309 309 311 312 314 316 316 318 319 321
286 287 288 289 290 289 289 290 292 294 295 296 298 298 298 299 301 302 302 302 302 302 302 304 305 306 307 308 310 311 312 314 316 316 317 319 320 321 323 324 325 326 328
290 291 291 291 293 293 293 293 294 296 298 299 300 300 301 302 303 304 305 306 307 308 309 310 310 311 313 314 316 318 320 322 324 325 326 328 329 330 331 333 336 338 340
Height
5865 5866 5867 5868 5869 5870 5870 5871 5871 5871 5871 5871 5871 5871 5871 5871 5870 5870 5869 5868 5867 5867 5866 5865 5865 5864 5864 5863 5863 5863 5862 5862 5861 5861 5861 5861 5861 5860 5860 5860 5860 5860 5860
5861 5862 5863 5864 5865 5866 5866 5867 5867 5867 5867 5867 5867 5867 5867 5866 5866 5865 5864 5864 5863 5862 5861 5861 5860 5860 5859 5858 5858 5857 5857 5857 5856 5856 5855 5855 5855 5854 5854 5854 5854 5854 5854
5857 5858 5859 5860 5861 5861 5862 5862 5863 5863 5863 5863 5863 5863 5862 5862 5861 5860 5860 5859 5858 5857 5857 5856 5855 5855 5854 5853 5853 5852 5851 5851 5850 5849 5849 5849 5848 5848 5847 5847 5847 5846 5846
5852 5853 5854 5855 5856 5856 5856 5857 5858 5858 5858 5858 5858 5858 5857 5856 5856 5855 5854 5854 5853 5852 5851 5851 5850 5849 5848 5848 5847 5846 5845 5844 5844 5843 5842 5842 5841 5840 5840 5839 5839 5839 5838
5847 5849 5849 5850 5850 5851 5851 5852 5852 5853 5853 5853 5853 5852 5851 5851 5850 5849 5849 5848 5847 5847 5846 5845 5844 5843 5842 5841 5841 5840 5839 5838 5837 5836 5835 5834 5833 5832 5832 5831 5831 5830 5829
5842 5843 5844 5844 5845 5845 5846 5846 5847 5847 5847 5847 5846 5846 5846 5845 5844 5843 5842 5842 5841 5841 5839 5838 5838 5837 5836 5835 5834 5833 5831 5830 5829 5828 5826 5825 5824 5823 5823 5822 5821 5820 5819
5836 5837 5838 5838 5839 5839 5840 5840 5840 5840 5841 5840 5840 5839 5839 5838 5838 5837 5836 5835 5835 5834 5833 5832 5831 5830 5828 5827 5826 5825 5823 5822 5820 5819 5818 5816 5815 5813 5812 5811 5810 5809 5808
5830 5831 5831 5832 5832 5833 5833 5834 5834 5834 5834 5834 5833 5833 5832 5832 5831 5830 5829 5828 5827 5827 5826 5824 5823 5822 5821 5819 5818 5816 5815 5813 5811 5809 5807 5806 5804 5802 5801 5799 5798 5797 5795
5824 5825 5825 5825 5826 5827 5827 5827 5827 5827 5827 5827 5826 5825 5825 5824 5823 5823 5821 5821 5820 5818 5817 5816 5814 5813 5811 5809 5808 5806 5804 5802 5800 5798 5796 5794 5792 5790 5788 5787 5785 5783 5782
5817 5818 5818 5819 5819 5820 5820 5820 5820 5820 5820 5819 5818 5817 5817 5816 5815 5815 5814 5812 5811 5809 5808 5807 5805 5803 5801 5799 5797 5795 5793 5791 5788 5786 5784 5782 5780 5778 5776 5773 5772 5769 5768
5810 5811 5811 5811 5812 5813 5813 5813 5812 5812 5811 5811 5810 5809 5808 5807 5806 5806 5805 5804 5802 5800 5798 5797 5795 5793 5791 5788 5786 5784 5781 5779 5777 5774 5772 5769 5767 5765 5762 5760 5757 5755 5753
5802 5803 5803 5804 5804 5804 5805 5804 5804 5804 5803 5802 5802 5801 5800 5799 5797 5796 5795 5793 5791 5790 5788 5786 5784 5781 5779 5777 5774 5772 5769 5767 5764 5761 5759 5756 5753 5751 5748 5745 5743 5740 5737
5794 5795 5795 5796 5796 5796 5796 5796 5795 5795 5794 5794 5793 5792 5791 5789 5788 5786 5784 5783 5781 5779 5777 5775 5772 5770 5767 5764 5762 5759 5756 5754 5751 5748 5745 5742 5739 5736 5733 5730 5727 5724 5721
5786 5786 5787 5787 5787 5787 5787 5787 5786 5786 5785 5784 5783 5782 5781 5779 5777 5775 5773 5772 5770 5768 5766 5763 5761 5758 5755 5752 5749 5746 5743 5740 5737 5734 5731 5728 5725 5721 5718 5715 5711 5708 5704
5777 5778 5778 5778 5778 5778 5777 5777 5776 5775 5774 5774 5772 5771 5770 5768 5766 5764 5762 5760 5759 5756 5754 5751 5749 5746 5743 5740 5736 5733 5730 5727 5724 5721 5717 5714 5710 5707 5703 5700 5696 5693 5689
5769 5769 5769 5769 5769 5768 5767 5767 5766 5765 5764 5763 5762 5760 5759 5757 5755 5753 5751 5749 5746 5744 5742 5739 5736 5733 5730 5727 5724 5721 5717 5714 5710 5707 5704 5700 5697 5693 5689 5685 5681 5677 5674
5760 5760 5760 5759 5759 5758 5757 5757 5756 5755 5753 5752 5751 5749 5747 5745 5743 5741 5739 5736 5734 5732 5729 5726 5724 5720 5717 5714 5711 5708 5705 5701 5698 5695 5691 5687 5684 5680 5676 5672 5668 5663 5660
5751 5751 5750 5750 5749 5749 5748 5747 5746 5744 5743 5741 5740 5738 5736 5734 5732 5729 5727 5724 5722 5720 5717 5714 5711 5708 5705 5702 5699 5696 5692 5689 5686 5683 5679 5675 5672 5668 5664 5659 5655 5651 5648
5742 5742 5741 5741 5740 5739 5738 5737 5735 5734 5733 5731 5729 5727 5725 5723 5721 5718 5716 5713 5710 5708 5705 5703 5699 5696 5693 5691 5688 5685 5681 5678 5675 5671 5668 5664 5660 5656 5652 5648 5644 5640 5636
5734 5733 5732 5731 5730 5729 5728 5727 5726 5724 5722 5721 5719 5717 5715 5712 5710 5708 5705 5702 5700 5697 5694 5692 5689 5686 5684 5681 5678 5674 5671 5668 5665 5661 5658 5654 5650 5646 5642 5638 5635 5630 5627
5725 5724 5723 5722 5721 5720 5719 5718 5717 5715 5713 5711 5709 5707 5705 5703 5700 5698 5695 5693 5690 5687 5685 5682 5680 5677 5674 5671 5668 5665 5662 5659 5655 5652 5648 5645 5642 5638 5634 5630 5626 5622 5618
5717 5716 5715 5714 5712 5711 5710 5709 5708 5706 5704 5703 5700 5698 5696 5693 5691 5688 5686 5683 5681 5678 5676 5674 5671 5668 5665 5662 5660 5657 5654 5651 5648 5645 5641 5638 5635 5631 5627 5623 5619 5615 5611
5710 5709 5707 5706 5705 5703 5702 5701 5700 5698 5696 5694 5692 5690 5687 5685 5682 5679 5677 5674 5672 5670 5668 5665 5663 5660 5658 5655 5652 5649 5646 5644 5641 5638 5635 5632 5629 5625 5622 5618 5614 5610 5606
5703 5701 5700 5699 5697 5696 5695 5694 5692 5691 5689 5687 5684 5682 5680 5678 5675 5672 5670 5667 5665 5662 5660 5658 5656 5653 5651 5648 5646 5643 5641 5638 5635 5633 5630 5627 5624 5621 5617 5613 5610 5606 5602
5696 5694 5693 5692 5691 5689 5688 5687 5685 5683 5682 5680 5678 5676 5674 5671 5669 5666 5664 5661 5659 5656 5654 5652 5650 5648 5645 5643 5641 5639 5636 5634 5631 5629 5626 5623 5620 5617 5613 5610 5606 5602 5598
5689 5688 5687 5686 5685 5683 5682 5680 5679 5677 5676 5674 5672 5670 5668 5666 5663 5661 5658 5656 5654 5651 5649 5647 5645 5643 5641 5640 5637 5635 5633 5631 5628 5626 5623 5620 5617 5614 5611 5607 5604 5600 5596